[[{"header":{"parameterUnit":"m.s-1","parameterCategory":1,"la1":30.2991,"la2":30.254,"lo1":-89.0895,"lo2":-89.0444,"dy":0.0017,"dx":0.0017,"nx":28,"ny":28,"refTime":"2023-08-14T09:00:00:Z","depth":0,"parameterNumber":2,"parameterNumberName":"U-component_of_WINDS"},"data":[0,0,0,0,0,0,0,0,0,0,0,0,0,0,0,0,0,0,0,0,0,0,0,0,0,0,0,0,0,0,0,0,0,0,0,0,0,0,0,0,0,0,0,0,0,0,0,0,0,0,0,0,0,0,0,0,0,0,3.1296,3.1296,0,3.1363,3.1364,3.1364,3.134,3.1338,3.1337,3.1336,3.141,3.1413,3.1417,0,0,0,0,0,0,0,0,0,0,0,0,0,3.1154,3.1156,3.1296,3.1296,3.1297,3.1363,3.1364,3.1364,3.134,3.1338,3.1337,3.1335,3.1409,3.1413,3.1417,0,0,0,0,0,0,0,0,0,0,0,0,0,3.1218,3.1157,3.1296,3.1293,3.1293,3.1362,3.1364,3.1365,3.1341,3.1338,3.1336,3.1334,3.1408,3.1412,3.1417,3.1495,0,0,3.1433,3.1435,0,0,0,0,0,0,0,0,3.1214,3.1223,3.1293,3.1293,3.1294,3.1341,3.1341,3.1409,3.1341,3.1323,3.1335,3.1333,3.1389,3.1396,3.1413,3.1498,3.1501,3.1434,3.1437,3.1439,3.144,0,0,0,0,0,0,0,3.121,3.122,3.1322,3.1294,3.1294,3.1291,3.1297,3.1354,3.1368,3.1324,3.1323,3.1331,3.1389,3.1408,3.1415,3.1503,3.1433,3.1438,3.1441,3.1443,3.1659,3.1661,0,0,0,0,0,0,3.1204,3.1216,3.132,3.1324,3.1247,3.1295,3.1303,3.1328,3.1367,3.1371,3.1333,3.1329,3.1401,3.1409,3.1417,3.1514,3.1439,3.1444,3.1446,3.1656,3.1659,3.1662,0,0,0,0,0,0,3.1201,3.1214,3.1318,3.127,3.1283,3.13,3.1329,3.1331,3.135,3.1374,3.1377,3.1349,3.1399,3.141,3.1476,3.1516,3.1446,3.1451,3.1653,3.1657,3.1661,3.1705,0,0,0,0,0,0,3.1197,3.1213,3.124,3.1271,3.1285,3.1373,3.1331,3.1333,3.1358,3.1354,3.139,3.1394,3.1398,3.1469,3.1481,3.1521,3.1454,3.165,3.1655,3.166,3.17,3.171,3.1718,0,0,0,0,0,3.1192,3.125,3.1242,3.1254,3.132,3.1375,3.1384,3.1386,3.1361,3.1391,3.1407,3.1393,3.1509,3.1476,3.149,3.1532,3.1647,3.1653,3.1659,3.1696,3.1708,3.1718,0,0,0,0,0,0,3.1225,3.1254,3.1245,3.1314,3.1342,3.1371,3.1408,3.1398,3.1436,3.1431,3.1434,3.1443,3.1511,3.1528,3.149,3.1611,3.1575,3.1584,3.1598,3.1609,3.1618,3.1614,3.1459,0,0,0,0,0,3.124,3.1281,3.1304,3.1363,3.1378,3.1391,3.1415,3.1414,3.1444,3.1457,3.1477,3.1509,3.1553,3.1581,3.1623,3.1701,3.1711,3.1738,3.1747,3.1754,3.1763,3.181,3.1823,3.1682,3.1682,3.1682,0,0,3.1272,3.1293,3.1319,3.1371,3.1392,3.1437,3.1401,3.1449,3.1483,3.1464,3.1528,3.1545,3.158,3.1654,3.1688,3.167,3.1804,3.1762,3.1768,3.1772,3.1817,3.1831,3.1843,3.1686,3.1685,3.1685,0,0,3.1354,3.1372,3.1425,3.1448,3.1481,3.1489,3.1502,3.1533,3.1543,3.1607,3.1595,3.1637,3.1711,3.1738,3.1761,3.1856,3.1847,3.187,3.1918,3.1964,3.1975,3.1985,3.2022,3.2035,3.1878,3.1878,3.1878,0,3.1391,3.1455,3.1454,3.1504,3.1529,3.1513,3.1568,3.1591,3.1637,3.1656,3.1635,3.173,3.1753,3.1834,3.1858,3.1876,3.1894,3.1867,3.1973,3.1983,3.1992,3.2028,3.2042,3.1881,3.188,3.188,3.188,0,3.15,3.1545,3.1584,3.1628,3.1657,3.1709,3.1719,3.1749,3.1747,3.1758,3.1826,3.1852,3.1901,3.1919,3.1917,3.2002,3.1991,3.1971,3.1936,3.2009,3.2043,3.2056,3.1885,3.1884,3.1883,3.1882,0,0,3.1604,3.1648,3.1663,3.1684,3.172,3.1757,3.181,3.1855,3.1883,3.1915,3.1963,3.2027,3.201,3.2037,3.2038,3.2078,3.2156,3.2055,3.2056,3.2075,3.2255,3.2271,3.2287,3.2149,3.2151,3.2153,3.2253,0,3.1692,3.1783,3.1785,3.187,3.1914,3.1901,3.1947,3.1977,3.1989,3.2031,3.2045,3.2092,3.2065,3.2081,3.212,3.2138,3.2193,3.2131,3.2196,3.2198,3.219,3.2304,3.232,3.2413,3.2266,3.2268,3.227,0,3.1805,3.1841,3.193,3.1963,3.1982,3.2024,3.2068,3.2106,3.214,3.2147,3.2178,3.2174,3.2232,3.2192,3.2274,3.2232,3.2259,3.2272,3.2276,3.2284,3.224,3.2318,3.2442,3.2457,3.229,3.2288,3.2287,0,3.1877,3.1947,3.2011,3.2029,3.2068,3.2098,3.2116,3.2148,3.2176,3.2215,3.2235,3.228,3.2306,3.2343,3.2353,3.2323,3.2436,3.2396,3.2446,3.2446,3.2472,3.2471,3.2606,3.2485,3.2485,3.2485,3.2484,0,3.1976,3.2032,3.2044,3.2083,3.2147,3.2149,3.2213,3.2229,3.2258,3.2303,3.2294,3.2336,3.2345,3.239,3.2398,3.2467,3.2478,3.2488,3.249,3.249,3.2489,3.251,3.2505,3.2488,3.2487,3.2487,3.2486,0,3.2067,3.2077,3.2146,3.2177,3.2187,3.2233,3.2261,3.23,3.2312,3.2369,3.2382,3.2402,3.2455,3.2468,3.2531,3.2537,3.2619,3.2614,3.2608,3.2608,3.2658,3.2655,3.2813,3.2836,3.2697,3.2699,3.27,0,3.213,3.2173,3.221,3.2238,3.2258,3.2303,3.2333,3.2338,3.2369,3.2412,3.2448,3.2499,3.2541,3.2627,3.2649,3.2698,3.2696,3.2748,3.2703,3.2703,3.2701,3.2699,3.2705,3.2757,3.2759,3.276,3.2761,0,3.2244,3.2247,3.2288,3.2332,3.2367,3.2402,3.2436,3.2461,3.2471,3.2507,3.2561,3.2593,3.2658,3.2711,3.2761,3.2782,3.2775,3.2774,3.2789,3.2791,3.2787,3.2793,3.2634,3.2771,3.277,3.2769,3.2769,3.2768,3.2325,3.2364,3.2396,3.2444,3.247,3.2502,3.2541,3.2558,3.2602,3.2655,3.2656,3.2715,3.2751,3.2818,3.2842,3.2891,3.2875,3.2896,3.2901,3.2907,3.2913,3.2777,3.2899,3.2899,3.2899,3.2899,3.2898,0,3.2441,3.2461,3.2504,3.2552,3.259,3.2577,3.2615,3.2649,3.27,3.2734,3.2775,3.2839,3.289,3.2916,3.2969,3.3003,3.3001,3.3017,3.3016,3.3022,3.2922,3.2906,3.3018,3.3018,3.3018,3.3018,3.3017,3.3017,3.2506,3.2572,3.2579,3.2659,3.268,3.2737,3.276,3.2791,3.2818,3.2888,3.2931,3.2947,3.2979,3.3033,3.3082,3.3088,3.3109,3.3128,3.3133,3.304,3.3028,3.3017,3.3001,3.3131,3.3132,3.3228,3.3229,3.323]},{"header":{"parameterUnit":"m.s-1","parameterCategory":1,"la1":30.2991,"la2":30.254,"lo1":-89.0895,"lo2":-89.0444,"dy":0.0017,"dx":0.0017,"nx":28,"ny":28,"refTime":"2023-08-14T09:00:00:Z","depth":0,"parameterNumber":3,"parameterNumberName":"V-component_of_WINDS"},"data":[0,0,0,0,0,0,0,0,0,0,0,0,0,0,0,0,0,0,0,0,0,0,0,0,0,0,0,0,0,0,0,0,0,0,0,0,0,0,0,0,0,0,0,0,0,0,0,0,0,0,0,0,0,0,0,0,0,0,2.1671,2.1672,0,2.1776,2.1777,2.1778,2.1793,2.1792,2.1791,2.179,2.1894,2.1897,2.1901,0,0,0,0,0,0,0,0,0,0,0,0,0,2.1477,2.1481,2.1671,2.1672,2.1674,2.1776,2.1777,2.1779,2.1793,2.1792,2.179,2.1789,2.1892,2.1897,2.1901,0,0,0,0,0,0,0,0,0,0,0,0,0,2.1569,2.1482,2.1671,2.1693,2.1696,2.1776,2.1777,2.1779,2.1793,2.1792,2.179,2.1789,2.1891,2.1896,2.1902,2.1965,0,0,2.1919,2.1921,0,0,0,0,0,0,0,0,2.1564,2.1576,2.1689,2.1692,2.1695,2.177,2.1747,2.1841,2.1793,2.1756,2.179,2.1788,2.1853,2.1862,2.1885,2.197,2.1974,2.1919,2.1922,2.1925,2.1926,0,0,0,0,0,0,0,2.1558,2.1572,2.1713,2.169,2.1694,2.1696,2.1707,2.1765,2.1812,2.1759,2.1761,2.1773,2.1855,2.1879,2.1887,2.1976,2.1919,2.1924,2.1927,2.1929,2.2113,2.2114,0,0,0,0,0,0,2.1548,2.1567,2.1709,2.1716,2.1625,2.1701,2.1713,2.1747,2.1811,2.1819,2.1774,2.1773,2.1871,2.1881,2.1891,2.1966,2.1925,2.193,2.1933,2.2111,2.2113,2.2115,0,0,0,0,0,0,2.1544,2.1561,2.1705,2.1642,2.166,2.1706,2.1743,2.175,2.1775,2.1822,2.183,2.1791,2.187,2.1883,2.1945,2.197,2.1932,2.1937,2.2109,2.2112,2.2114,2.2118,0,0,0,0,0,0,2.1538,2.1559,2.1585,2.1642,2.1663,2.176,2.1745,2.1753,2.1785,2.1784,2.184,2.1848,2.187,2.1937,2.1951,2.1977,2.1942,2.2107,2.211,2.2113,2.2116,2.212,2.2124,0,0,0,0,0,2.1531,2.1583,2.1587,2.1604,2.1698,2.1761,2.1773,2.1799,2.1787,2.1812,2.1842,2.1846,2.1965,2.1944,2.1959,2.1987,2.2106,2.211,2.2113,2.2114,2.212,2.2124,0,0,0,0,0,0,2.1527,2.1591,2.1596,2.1668,2.1709,2.1764,2.1797,2.1804,2.1849,2.1847,2.1875,2.1887,2.1947,2.1974,2.1949,2.2049,2.2034,2.2041,2.203,2.2035,2.2039,2.2031,2.1946,0,0,0,0,0,2.1535,2.1583,2.1635,2.1693,2.1714,2.1752,2.178,2.1796,2.1839,2.1857,2.1892,2.1932,2.1978,2.2008,2.2054,2.212,2.213,2.2146,2.215,2.2153,2.2158,2.2191,2.2198,2.2126,2.2126,2.2126,0,0,2.1551,2.1591,2.162,2.1693,2.1727,2.1774,2.1766,2.1817,2.1851,2.1864,2.1925,2.1951,2.1998,2.2062,2.2091,2.2085,2.218,2.2158,2.216,2.2163,2.2195,2.2202,2.2208,2.2129,2.2128,2.2128,0,0,2.1604,2.1641,2.1691,2.1725,2.1776,2.18,2.1812,2.1865,2.1883,2.1945,2.1954,2.1994,2.2074,2.2106,2.2133,2.2193,2.2197,2.2206,2.2227,2.2258,2.2264,2.2269,2.2287,2.2294,2.2212,2.2212,2.2212,0,2.1617,2.169,2.1716,2.1766,2.1796,2.1809,2.1859,2.189,2.1953,2.1972,2.1965,2.2062,2.2096,2.2164,2.2179,2.2201,2.2213,2.22,2.2261,2.2267,2.2272,2.2289,2.2297,2.2212,2.2212,2.2212,2.2212,0,2.1701,2.1751,2.1785,2.1845,2.188,2.1929,2.196,2.1991,2.2002,2.2026,2.2086,2.2126,2.2177,2.2195,2.2207,2.2265,2.2259,2.2256,2.2242,2.2279,2.2296,2.2303,2.2213,2.2213,2.2213,2.2213,0,0,2.1756,2.1828,2.184,2.1865,2.1921,2.1959,2.2007,2.2058,2.2082,2.2125,2.2163,2.2229,2.2225,2.2255,2.2271,2.2299,2.2339,2.2292,2.2293,2.2297,2.24,2.2401,2.2409,2.2343,2.2344,2.2345,2.2396,0,2.1813,2.1901,2.1924,2.1997,2.2041,2.2053,2.2094,2.2131,2.2154,2.2193,2.2217,2.2262,2.2256,2.2274,2.2302,2.2328,2.236,2.2325,2.2376,2.2378,2.2363,2.2418,2.242,2.2466,2.2403,2.2404,2.2405,0,2.1892,2.1935,2.2012,2.2059,2.2078,2.2115,2.2161,2.22,2.224,2.2254,2.2286,2.2298,2.2345,2.2328,2.2392,2.2368,2.2389,2.2405,2.2407,2.2412,2.2393,2.2422,2.2481,2.2487,2.2416,2.2415,2.2414,0,2.192,2.1997,2.2053,2.2075,2.2131,2.2156,2.218,2.222,2.2248,2.2288,2.2305,2.235,2.2374,2.2407,2.2429,2.2415,2.2489,2.2475,2.25,2.2499,2.2514,2.2513,2.2576,2.2531,2.2531,2.2531,2.2531,0,2.198,2.2026,2.2065,2.2099,2.215,2.2175,2.2224,2.2248,2.2283,2.2319,2.2332,2.2366,2.2394,2.2431,2.2448,2.2496,2.2507,2.2518,2.2522,2.2516,2.2514,2.253,2.2527,2.2533,2.2533,2.2532,2.2532,0,2.202,2.2049,2.2109,2.2157,2.217,2.2205,2.2245,2.2276,2.2298,2.2344,2.2356,2.2391,2.2434,2.246,2.2515,2.2526,2.2578,2.2582,2.2565,2.2566,2.2588,2.2585,2.2662,2.2672,2.2622,2.2623,2.2623,0,2.2056,2.2091,2.2142,2.2168,2.2193,2.2234,2.2262,2.2287,2.2315,2.2362,2.2387,2.2431,2.2468,2.2536,2.2565,2.2606,2.2609,2.2633,2.2615,2.2607,2.2606,2.2603,2.2605,2.2636,2.2636,2.2636,2.2637,0,2.2115,2.2126,2.2167,2.2211,2.2244,2.2281,2.2316,2.2336,2.2366,2.2397,2.2441,2.247,2.2525,2.2567,2.261,2.2632,2.2638,2.2642,2.2649,2.2643,2.2631,2.2635,2.2571,2.264,2.264,2.2639,2.2639,2.2639,2.2152,2.2183,2.2222,2.2266,2.2295,2.2328,2.2359,2.2384,2.2422,2.247,2.2481,2.2527,2.2563,2.2621,2.2644,2.2679,2.2675,2.2686,2.2689,2.2691,2.269,2.2626,2.2687,2.2687,2.2687,2.2687,2.2687,0,2.2209,2.2235,2.2275,2.2324,2.2357,2.2361,2.24,2.2426,2.2467,2.2501,2.2536,2.2585,2.2626,2.2656,2.2697,2.2718,2.2722,2.2728,2.2726,2.273,2.2693,2.2681,2.2724,2.2724,2.2724,2.2724,2.2724,2.2724,2.2243,2.2294,2.231,2.2374,2.2399,2.2445,2.2466,2.2494,2.2521,2.2576,2.261,2.2629,2.2661,2.2703,2.2739,2.2747,2.276,2.2765,2.2773,2.2737,2.2733,2.2729,2.2718,2.2769,2.2769,2.2808,2.2808,2.2808]}]]